Preview of NWS' New Version of Forecast
This preview is not operational and should not be used for support decisions.

Regional Weather Roundup (RWR)

Issued by National Weather Service (NWS)

                            
000
ASUS45 KABQ 171310
RWRNM 
NEW MEXICO REGIONAL WEATHER ROUNDUP
NATIONAL WEATHER SERVICE ALBUQUERQUE NM
600 AM MST SUN FEB 17 2019

NOTE: "FAIR" MEANS FEW OR NO CLOUDS BELOW 12,000 FEET AGL WITH NO
       SIGNIFICANT WEATHER OR OBSTRUCTIONS TO VISION.

      THIS PRODUCT IS RELEASED AS TWO VERSIONS.  ONE VERSION NEAR
      THE TOP OF THE HOUR CONTAINING PRELIMINARY DATA FROM ALBUQUERQUE
      AND OTHER STATIONS.  A FINAL VERSION WITH ADDITIONAL DATA IS 
      ISSUED ABOUT 10 MINUTES AFTER THE HOUR.
 
NMZ501-503-504-510>518-171400-
NORTHWEST PLATEAU/NORTHCENTRAL MOUNTAINS
  
CITY           SKY/WX    TMP DP  RH WIND       PRES   REMARKS
FARMINGTON     FAIR      20   9  62 E9        29.85R WCI   9          
LOS ALAMOS     FAIR      20  11  68 W5        29.83R WCI  13          
SANTA FE       FAIR      20  11  68 CALM      29.84R                  
TAOS           FAIR      15  11  83 N3        29.85R                  
ANGEL FIRE       N/A     -1  -5  86 CALM      29.80R                  

$$
NMZ402-403-502-505>509-171400-
WESTCENTRAL MOUNTAINS/SOUTHWEST MOUNTAINS
  
CITY           SKY/WX    TMP DP  RH WIND       PRES   REMARKS
GALLUP         CLOUDY    26  22  84 SW8       29.84S WCI  18          
GRANTS         CLOUDY    21  17  84 SW3       29.87S                  
SILVER CITY    FAIR      28  20  69 W5        29.91R WCI  23          

$$
NMZ407-409-411-412-171400-
SOUTHERN DESERTS
  
CITY           SKY/WX    TMP DP  RH WIND       PRES   REMARKS
DEMING         FAIR      28  17  63 S7        29.93R WCI  21          
LAS CRUCES     FAIR      34  19  55 W7        29.93R WCI  28          
HOLLOMAN AFB   FAIR     N/A N/A N/A CALM      29.93R                  
ALAMOGORDO     FAIR      28  18  64 MISG      29.91R                  
T OR C         FAIR      31  15  52 W8        29.90R WCI  23          

$$
NMZ519>523-171400-
CENTRAL VALLEYS/CENTRAL HIGHLANDS
  
CITY           SKY/WX    TMP DP  RH WIND       PRES   REMARKS
ALBUQUERQUE    FAIR      23  16  74 SE3       29.88R                  
MORIARTY ARPT  FAIR      18  12  79 S7        29.87R WCI   8          
CLINES CORNERS FAIR      17   8  67 W6        29.84R WCI   9          
BELEN          FAIR      27  19  71 CALM      29.89R                  
SOCORRO        FAIR      25  18  77 CALM      29.90S                  

$$
NMZ524>526-539-540-171400-
SOUTHCENTRAL MOUNTAINS
  
CITY           SKY/WX    TMP DP  RH WIND       PRES   REMARKS
RUIDOSO        NOT AVBL                                               

$$
NMZ527>531-171400-
NORTHEAST HIGHLANDS/NORTHEAST PLAINS
  
CITY           SKY/WX    TMP DP  RH WIND       PRES   REMARKS
LAS VEGAS      FAIR      16   5  62 W3        29.81R                  
RATON          FAIR       7  -1  70 NE8       29.79R WCI  -6          
CLAYTON        FAIR      14   5  67 W8        29.82R WCI   3          

$$
NMZ532>537-171400-
EASTCENTRAL PLAINS
  
CITY           SKY/WX    TMP DP  RH WIND       PRES   REMARKS
SANTA ROSA     FAIR      25  12  58 SW5       29.86R WCI  19          
TUCUMCARI      FAIR      18  13  80 W5        29.87R WCI  11          
CANNON AFB     FAIR      24  17  74 W6        29.90R WCI  17          
CLOVIS AIRPORT FAIR      20  15  81 W6        29.91R WCI  12          

$$
NMZ028-029-538-171400-
SOUTHEAST PLAINS
  
CITY           SKY/WX    TMP DP  RH WIND       PRES   REMARKS
ROSWELL        FAIR      29  17  61 W5        29.91R WCI  24          
ARTESIA        FAIR      32  19  59 N7        29.92R WCI  26          
CARLSBAD       FAIR      35  20  54 N7        29.92R WCI  29          
HOBBS          CLEAR     30  16  55 N5        29.93R WCI  25          


$$